FENGYUN 1C DEB

Satellite information

Favourite Embed

Satellite Type and Status

DEBRISIN ORBIT

Key statistics

Satellite FENGYUN 1C DEB at a glance.

Uptime

9715

Days in orbit

Revolutions

≈ 14.2

Per day

Orbit

SSO

Sun Synchronous Orbit

Inclination

98.7

Latest

Satellite identification and parameters

Extended collection of information and parameters for FENGYUN 1C DEB.

Object identification

Identified? True

Debris? True

Object name: FENGYUN 1C DEB

International designator: 1999-025EYJ

Object number (NORAD): 41831

Object ID (CCSDS): 41831

Country: PEOPLES REPUBLIC OF CHINA (PRC)

Current information (Y/N): Y

RCS size: SMALL

Orbital parameters

Period: 101.084 minutes

Inclination: 98.7344 deg

SMA: 7188.109 km

Apoapsis: 850.336 km

Periapsis: 769.612 km

RAAN: 53.0218 deg

Eccentricy: 0.00561511

Argument of periapsis: 222.7361 deg

Mean anomaly: 136.9445 deg

Mean motion: 14.24560086 rev/day

Mean motion (dot): 0.00005738 rev/day2

B* drag term: 0.0024493696 1/REarth

Two-line elements (TLE)

Creation date: Dec. 12, 2025, 10:14 a.m.

Reference frame: TEME

Reference center: EARTH

Epoch: Dec. 12, 2025, 3:54 a.m. UTC

TLE line 0: 0 FENGYUN 1C DEB

TLE line 1: 1 41831U 99025EYJ 25346.16255470 .00005738 00000-0 24494-2 0 9990

TLE line 2: 2 41831 98.7344 53.0218 0056151 222.7361 136.9445 14.24560086472511

Live tracking on map

Real-time ground track for satellite FENGYUN 1C DEB.

In-orbit conjunctions

A list of the most updated potential collisions computed for object FENGYUN 1C DEB.

Target Orbit TCA Probability of collision Miss distance Type
KITSAT B SSO 2025-12-10 17:45:57 0.000109259 144.0 (m) PAYLOAD
FENGYUN 1C DEB SSO 2025-06-01 01:11:54 0.0004841376 45.0 (m) DEBRIS
DIAMANT R/B LEO 2025-03-02 03:02:40 0.00046396 257.0 (m) ROCKET BODY

Associated space launch

Chinese polar orbiting meteorological satellite

FENGYUN 1C DEB was lifted into orbit during the mission ‘Long March 4B | Feng Yun 1C’, on board a Long March 4B space rocket.

The launch took place on May 10, 1999, 1:33 a.m. from Launch Complex 7.

For more information about the launch, click the button.

Launch to space Long March 4B | Feng Yun 1C
Long March 4B | Feng Yun 1C

Agency: N/A

Status: Launch Successful

Launch date: May 10, 1999, 1:33 a.m. UTC

Rocket: Long March 4B

Launch pad: Launch Complex 7

Location: Taiyuan Satellite Launch Center, People's Republic of China

...

Latest news about this satellite

There are no fresh news available about this satellite. Check back as we update our databases every day.


Newsletter sign-up

Weekly statistics, charts and insights to help you stay on top of the space industry.